Weather History for KGRF - October, 2011

Change the Weather History Date:

Monday, October 31, 2011

  Actual Average Record
Temperature  
Mean Temperature 44 °F -  
Max Temperature 54 °F 53 °F 60 °F (2008)
Min Temperature 35 °F 36 °F 21 °F (2002)
Degree Days  
Heating Degree Days 21    
Moisture  
Dew Point 39 °F    
Average Humidity 86    
Maximum Humidity 100    
Minimum Humidity 61    
Precipitation  
Precipitation 0.00 in - - ()
Sea Level Pressure  
Sea Level Pressure 30.35 in    
Wind  
Wind Speed 4 mph (SSE)    
Max Wind Speed 8 mph    
Max Gust Speed -    
Visibility 9 miles    
Events      
Averages and records for this station are not official NWS values.
T = Trace of Precipitation, MM = Missing Value Source: NWS Daily Summary

Daily Weather History Graph

Daily Weather History Graph

Search for Another Location

Airport or City:

Trip Planner

Search our weather history database for the weather conditions in past years. The results will help you decide how hot, cold, wet, or windy it might be!

Date:

Astronomy

Oct. 31, 2011 Rise Set
Actual Time 7:51 AM PDT 5:55 PM PDT
Civil Twilight 7:19 AM PDT 6:27 PM PDT
Nautical Twilight 6:43 AM PDT 7:03 PM PDT
Astronomical Twilight 6:08 AM PDT 7:38 PM PDT
Moon 1:10 PM PDT (10/31) 10:30 PM PDT (10/31)
Length of Visible Light 11h 07m
Length of Day
10h 04m
Waxing Crescent, 31% of the Moon is Illuminated
Oct 31
Waxing Crescent
Nov 2
First Quarter
Nov 10
Full
Nov 18
Last Quarter
Nov 24
New

Hourly Weather History & Observations

Time (PDT) Temp. Windchill Dew Point Humidity Pressure Visibility Wind Dir Wind Speed Gust Speed Precip Events Conditions
12:55 AM 40.1 °F 35.3 °F 38.3 °F 93% 30.24 in 10.0 mi SE 6.9 mph - N/A   Clear
1:55 AM 40.1 °F - 38.8 °F 95% 30.26 in 10.0 mi Calm Calm - N/A   Partly Cloudy
2:07 AM 39.2 °F 37.0 °F 37.4 °F 93% 30.27 in 10.0 mi SE 3.5 mph - N/A   Mostly Cloudy
2:46 AM 39.2 °F 35.0 °F 37.4 °F 93% 30.27 in 10.0 mi SE 5.8 mph - N/A   Scattered Clouds
2:55 AM 39.6 °F 35.4 °F 38.5 °F 96% 30.27 in 10.0 mi SE 5.8 mph - N/A   Partly Cloudy
3:55 AM 38.7 °F 33.6 °F 37.6 °F 96% 30.27 in 10.0 mi SE 6.9 mph - N/A   Scattered Clouds
4:55 AM 38.3 °F - 37.4 °F 97% 30.29 in 10.0 mi Calm Calm - N/A   Partly Cloudy
5:55 AM 39.4 °F 37.2 °F 38.5 °F 97% 30.31 in 10.0 mi Variable 3.5 mph - N/A   Clear
6:24 AM 37.4 °F 34.9 °F 37.4 °F 100% 30.32 in 10.0 mi East 3.5 mph - N/A   Partly Cloudy
6:55 AM 36.3 °F - 35.4 °F 97% 30.32 in 8.0 mi Calm Calm - N/A   Clear
7:16 AM 35.6 °F 29.9 °F 33.8 °F 93% 30.32 in 2.0 mi SE 6.9 mph - N/A   Scattered Clouds
7:55 AM 35.1 °F 29.3 °F 34.2 °F 97% 30.32 in 2.5 mi SE 6.9 mph - N/A   Clear
8:13 AM 35.6 °F 29.2 °F 33.8 °F 93% 30.33 in 1.2 mi SE 8.1 mph - N/A   Clear
8:23 AM 35.6 °F 29.2 °F 35.6 °F 100% 30.33 in 4.0 mi SSE 8.1 mph - N/A   Clear
8:55 AM 38.8 °F 35.4 °F 38.3 °F 98% 30.34 in 10.0 mi SE 4.6 mph - N/A   Clear
9:55 AM 45.9 °F 42.3 °F 45.5 °F 99% 30.35 in 10.0 mi SE 6.9 mph - N/A   Clear
10:55 AM 49.6 °F - 42.1 °F 75% 30.37 in 10.0 mi Variable 3.5 mph - N/A   Partly Cloudy
11:30 AM 50.0 °F - 41.0 °F 71% 30.37 in 10.0 mi Variable 3.5 mph - N/A   Mostly Cloudy
11:55 AM 52.2 °F - 41.5 °F 67% 30.37 in 10.0 mi Variable 4.6 mph - N/A   Mostly Cloudy
12:24 PM 50.0 °F - 41.0 °F 71% 30.37 in 10.0 mi WSW 5.8 mph - N/A   Scattered Clouds
12:55 PM 51.4 °F - 40.6 °F 67% 30.37 in 10.0 mi SW 5.8 mph - N/A   Partly Cloudy
1:55 PM 53.4 °F - 40.6 °F 62% 30.36 in 10.0 mi West 5.8 mph - N/A   Partly Cloudy
2:55 PM 51.8 °F - 39.9 °F 64% 30.37 in 10.0 mi West 4.6 mph - N/A   Scattered Clouds
3:55 PM 52.9 °F - 40.1 °F 62% 30.38 in 10.0 mi Calm Calm - N/A   Clear
4:55 PM 52.7 °F - 39.7 °F 61% 30.39 in 10.0 mi SW 4.6 mph - N/A   Mostly Cloudy
5:55 PM 50.0 °F - 40.8 °F 71% 30.40 in 10.0 mi NE 5.8 mph - N/A   Overcast
6:55 PM 48.6 °F - 40.6 °F 74% 30.43 in 10.0 mi Calm Calm - N/A   Overcast
7:55 PM 45.5 °F - 40.8 °F 84% 30.44 in 10.0 mi Calm Calm - N/A   Scattered Clouds
8:55 PM 44.2 °F 42.7 °F 41.7 °F 91% 30.46 in 10.0 mi SSE 3.5 mph - N/A   Overcast
9:55 PM 43.2 °F - 40.8 °F 91% 30.46 in 10.0 mi Calm Calm - N/A   Partly Cloudy
10:55 PM 40.5 °F - 38.8 °F 94% 30.47 in 4.0 mi Calm Calm - N/A   Partly Cloudy
11:55 PM 40.1 °F - 38.8 °F 95% 30.47 in 8.0 mi Calm Calm - N/A   Partly Cloudy